COSMOS 44

Satellite information

Favourite Embed

Satellite Type and Status

PAYLOADIN ORBIT

Key statistics

Satellite COSMOS 44 at a glance.

Uptime

22169

Days in orbit

Revolutions

≈ 14.7

Per day

Orbit

LEO

Low Earth Orbit

Inclination

65.1

Latest

Satellite identification and parameters

Extended collection of information and parameters for COSMOS 44.

Object identification

Identified? True

Debris? False

Object name: COSMOS 44

International designator: 1964-053A

Object number (NORAD): 876

Object ID (CCSDS): 876

Country: COMMONWEALTH OF INDEPENDENT STATES (CIS)

Current information (Y/N): Y

RCS size: LARGE

Orbital parameters

Period: 98.269 minutes

Inclination: 65.0603 deg

SMA: 7054.048 km

Apoapsis: 760.882 km

Periapsis: 590.943 km

RAAN: 81.8814 deg

Eccentricy: 0.0120455

Argument of periapsis: 57.2483 deg

Mean anomaly: 304.0159 deg

Mean motion: 14.65362759 rev/day

Mean motion (dot): 0.00000547 rev/day2

B* drag term: 0.00011364 1/REarth

Two-line elements (TLE)

Creation date: May 9, 2025, 2:46 a.m.

Reference frame: TEME

Reference center: EARTH

Epoch: May 8, 2025, 6:21 a.m. UTC

TLE line 0: 0 COSMOS 44

TLE line 1: 1 00876U 64053A 25128.26500862 .00000547 00000-0 11364-3 0 9990

TLE line 2: 2 00876 65.0603 81.8814 0120455 57.2483 304.0159 14.65362759229338

Live tracking on map

Real-time ground track for satellite COSMOS 44.

In-orbit conjunctions

A list of the most updated potential collisions computed for object COSMOS 44.

Target Orbit TCA Probability of collision Miss distance Type
DELTA 1 DEB SSO 2024-11-04 12:29:52 0.0001794924 206.0 (m) DEBRIS
COSMOS 2251 DEB LEO 2024-10-16 09:18:00 0.0001973212 634.0 (m) DEBRIS
CZ-6A DEB SSO 2024-09-17 12:36:29 0.0003285983 63.0 (m) DEBRIS
CZ-6A DEB SSO 2024-06-16 14:30:59 0.0001472267 420.0 (m) DEBRIS
CZ-6A DEB SSO 2024-05-29 00:56:40 0.0002074986 512.0 (m) DEBRIS

Associated space launch

The Meteor-1 series was the first series of Soviet meteorological satellites.

COSMOS 44 was lifted into orbit during the mission ‘Vostok 8A92M | Meteor-1 1’, on board a Vostok 8A92M space rocket.

The launch took place on Aug. 28, 1964, 4 p.m. from 31/6.

For more information about the launch, click the button.

Launch to space Vostok 8A92M | Meteor-1 1
Vostok 8A92M | Meteor-1 1

Agency: N/A

Status: Launch Successful

Launch date: Aug. 28, 1964, 4 p.m. UTC

Rocket: Vostok 8A92M

Launch pad: 31/6

Location: Baikonur Cosmodrome, Republic of Kazakhstan

...

Latest news about this satellite

There are no fresh news available about this satellite. Check back as we update our databases every day.


Newsletter sign-up

Weekly statistics, charts and insights to help you stay on top of the space industry.